Year,Month,Day,Hour,Minute,Value (Times are PST for temperature in C)
2018,08,07,00,00,18.00
2018,08,07,00,01,18.00
2018,08,07,00,02,18.00
2018,08,07,00,03,17.90
2018,08,07,00,04,17.90
2018,08,07,00,05,18.00
2018,08,07,00,06,17.90
2018,08,07,00,07,17.90
2018,08,07,00,08,17.90
2018,08,07,00,09,17.90
2018,08,07,00,10,17.90
2018,08,07,00,11,18.00
2018,08,07,00,12,17.90
2018,08,07,00,13,17.90
2018,08,07,00,14,17.90
2018,08,07,00,15,17.90
2018,08,07,00,16,17.90
2018,08,07,00,17,17.90
2018,08,07,00,18,17.80
2018,08,07,00,19,17.80
2018,08,07,00,20,17.80
2018,08,07,00,21,17.70
2018,08,07,00,22,17.70
2018,08,07,00,23,17.70
2018,08,07,00,24,17.70
2018,08,07,00,25,17.70
2018,08,07,00,26,17.60
2018,08,07,00,27,17.60
2018,08,07,00,28,17.60
2018,08,07,00,29,17.60
2018,08,07,00,30,17.60
2018,08,07,00,31,17.60
2018,08,07,00,32,17.60
2018,08,07,00,33,17.60
2018,08,07,00,34,17.60
2018,08,07,00,35,17.60
2018,08,07,00,36,17.60
2018,08,07,00,37,17.60
2018,08,07,00,38,17.60
2018,08,07,00,39,17.60
2018,08,07,00,40,17.60
2018,08,07,00,41,17.70
2018,08,07,00,42,17.70
2018,08,07,00,43,17.70
2018,08,07,00,44,17.60
2018,08,07,00,45,17.60
2018,08,07,00,46,17.60
2018,08,07,00,47,17.60
2018,08,07,00,48,17.60
2018,08,07,00,49,17.50
2018,08,07,00,50,17.50
2018,08,07,00,51,17.50
2018,08,07,00,52,17.40
2018,08,07,00,53,17.40
2018,08,07,00,54,17.40
2018,08,07,00,55,17.40
2018,08,07,00,56,17.40
2018,08,07,00,57,17.40
2018,08,07,00,58,17.40
2018,08,07,00,59,17.30
2018,08,07,01,00,17.30
2018,08,07,01,01,17.30
2018,08,07,01,02,17.30
2018,08,07,01,03,17.30
2018,08,07,01,04,17.30
2018,08,07,01,05,17.30
2018,08,07,01,06,17.30
2018,08,07,01,07,17.30
2018,08,07,01,08,17.30
2018,08,07,01,09,17.20
2018,08,07,01,10,17.20
2018,08,07,01,11,17.20
2018,08,07,01,12,17.20
2018,08,07,01,13,17.20
2018,08,07,01,14,17.20
2018,08,07,01,15,17.20
2018,08,07,01,16,17.10
2018,08,07,01,17,17.10
2018,08,07,01,18,17.10
2018,08,07,01,19,17.10
2018,08,07,01,20,17.10
2018,08,07,01,21,17.10
2018,08,07,01,22,17.10
2018,08,07,01,23,17.00
2018,08,07,01,24,17.00
2018,08,07,01,25,17.00
2018,08,07,01,26,16.90
2018,08,07,01,27,16.90
2018,08,07,01,28,16.90
2018,08,07,01,29,16.90
2018,08,07,01,30,16.90
2018,08,07,01,31,16.90
2018,08,07,01,32,16.80
2018,08,07,01,33,16.80
2018,08,07,01,34,16.80
2018,08,07,01,35,16.80
2018,08,07,01,36,16.80
2018,08,07,01,37,16.80
2018,08,07,01,38,16.80
2018,08,07,01,39,16.80
2018,08,07,01,40,16.80
2018,08,07,01,41,16.70
2018,08,07,01,42,16.70
2018,08,07,01,43,16.70
2018,08,07,01,44,16.70
2018,08,07,01,45,16.70
2018,08,07,01,46,16.70
2018,08,07,01,47,16.70
2018,08,07,01,48,16.70
2018,08,07,01,49,16.70
2018,08,07,01,50,16.70
2018,08,07,01,51,16.70
2018,08,07,01,52,16.70
2018,08,07,01,53,16.70
2018,08,07,01,54,16.70
2018,08,07,01,55,16.70
2018,08,07,01,56,16.70
2018,08,07,01,57,16.70
2018,08,07,01,58,16.70
2018,08,07,01,59,16.70
2018,08,07,02,00,16.70
2018,08,07,02,01,16.70
2018,08,07,02,02,16.70
2018,08,07,02,03,16.70
2018,08,07,02,04,16.70
2018,08,07,02,05,16.70
2018,08,07,02,06,16.70
2018,08,07,02,07,16.70
2018,08,07,02,08,16.70
2018,08,07,02,09,16.70
2018,08,07,02,10,16.70
2018,08,07,02,11,16.70
2018,08,07,02,12,16.70
2018,08,07,02,13,16.70
2018,08,07,02,14,16.70
2018,08,07,02,15,16.70
2018,08,07,02,16,16.70
2018,08,07,02,17,16.70
2018,08,07,02,18,16.70
2018,08,07,02,19,16.60
2018,08,07,02,20,16.60
2018,08,07,02,21,16.60
2018,08,07,02,22,16.60
2018,08,07,02,23,16.60
2018,08,07,02,24,16.50
2018,08,07,02,25,16.50
2018,08,07,02,26,16.50
2018,08,07,02,27,16.40
2018,08,07,02,28,16.40
2018,08,07,02,29,16.40
2018,08,07,02,30,16.40
2018,08,07,02,31,16.40
2018,08,07,02,32,16.40
2018,08,07,02,33,16.40
2018,08,07,02,34,16.40
2018,08,07,02,35,16.40
2018,08,07,02,36,16.40
2018,08,07,02,37,16.40
2018,08,07,02,38,16.40
2018,08,07,02,39,16.40
2018,08,07,02,40,16.30
2018,08,07,02,41,16.30
2018,08,07,02,42,16.30
2018,08,07,02,43,16.30
2018,08,07,02,44,16.30
2018,08,07,02,45,16.30
2018,08,07,02,46,16.30
2018,08,07,02,47,16.30
2018,08,07,02,48,16.30
2018,08,07,02,49,16.30
2018,08,07,02,50,16.30
2018,08,07,02,51,16.20
2018,08,07,02,52,16.20
2018,08,07,02,53,16.20
2018,08,07,02,54,16.20
2018,08,07,02,55,16.20
2018,08,07,02,56,16.20
2018,08,07,02,57,16.20
2018,08,07,02,58,16.20
2018,08,07,02,59,16.20
2018,08,07,03,00,16.20
2018,08,07,03,01,16.20
2018,08,07,03,02,16.30
2018,08,07,03,03,16.30
2018,08,07,03,04,16.30
2018,08,07,03,05,16.30
2018,08,07,03,06,16.30
2018,08,07,03,07,16.30
2018,08,07,03,08,16.30
2018,08,07,03,09,16.30
2018,08,07,03,10,16.30
2018,08,07,03,11,16.30
2018,08,07,03,12,16.30
2018,08,07,03,13,16.30
2018,08,07,03,14,16.30
2018,08,07,03,15,16.30
2018,08,07,03,16,16.30
2018,08,07,03,17,16.30
2018,08,07,03,18,16.30
2018,08,07,03,19,16.30
2018,08,07,03,20,16.30
2018,08,07,03,21,16.20
2018,08,07,03,22,16.20
2018,08,07,03,23,16.20
2018,08,07,03,24,16.20
2018,08,07,03,25,16.20
2018,08,07,03,26,16.20
2018,08,07,03,27,16.20
2018,08,07,03,28,16.20
2018,08,07,03,29,16.20
2018,08,07,03,30,16.20
2018,08,07,03,31,16.10
2018,08,07,03,32,16.10
2018,08,07,03,33,16.10
2018,08,07,03,34,16.10
2018,08,07,03,35,16.10
2018,08,07,03,36,16.10
2018,08,07,03,37,16.10
2018,08,07,03,38,16.10
2018,08,07,03,39,16.10
2018,08,07,03,40,16.10
2018,08,07,03,41,16.10
2018,08,07,03,42,16.10
2018,08,07,03,43,16.10
2018,08,07,03,44,16.10
2018,08,07,03,45,16.10
2018,08,07,03,46,16.10
2018,08,07,03,47,16.00
2018,08,07,03,48,16.00
2018,08,07,03,49,16.00
2018,08,07,03,50,16.00
2018,08,07,03,51,16.00
2018,08,07,03,52,16.00
2018,08,07,03,53,15.90
2018,08,07,03,54,15.90
2018,08,07,03,55,15.90
2018,08,07,03,56,15.90
2018,08,07,03,57,15.90
2018,08,07,03,58,15.90
2018,08,07,03,59,15.90
2018,08,07,04,00,15.90
2018,08,07,04,01,15.90
2018,08,07,04,02,15.90
2018,08,07,04,03,15.90
2018,08,07,04,04,15.90
2018,08,07,04,05,15.90
2018,08,07,04,06,15.90
2018,08,07,04,07,15.90
2018,08,07,04,08,15.90
2018,08,07,04,09,15.90
2018,08,07,04,10,15.80
2018,08,07,04,11,15.80
2018,08,07,04,12,15.80
2018,08,07,04,13,15.80
2018,08,07,04,14,15.80
2018,08,07,04,15,15.80
2018,08,07,04,16,15.80
2018,08,07,04,17,15.80
2018,08,07,04,18,15.80
2018,08,07,04,19,15.80
2018,08,07,04,20,15.80
2018,08,07,04,21,15.80
2018,08,07,04,22,15.80
2018,08,07,04,23,15.70
2018,08,07,04,24,15.70
2018,08,07,04,25,15.70
2018,08,07,04,26,15.70
2018,08,07,04,27,15.70
2018,08,07,04,28,15.70
2018,08,07,04,29,15.70
2018,08,07,04,30,15.70
2018,08,07,04,31,15.70
2018,08,07,04,32,15.70
2018,08,07,04,33,15.70
2018,08,07,04,34,15.70
2018,08,07,04,35,15.70
2018,08,07,04,36,15.70
2018,08,07,04,37,15.70
2018,08,07,04,38,15.60
2018,08,07,04,39,15.60
2018,08,07,04,40,15.60
2018,08,07,04,41,15.60
2018,08,07,04,42,15.60
2018,08,07,04,43,15.60
2018,08,07,04,44,15.60
2018,08,07,04,45,15.60
2018,08,07,04,46,15.60
2018,08,07,04,47,15.50
2018,08,07,04,48,15.50
2018,08,07,04,49,15.50
2018,08,07,04,50,15.50
2018,08,07,04,51,15.50
2018,08,07,04,52,15.50
2018,08,07,04,53,15.50
2018,08,07,04,54,15.50
2018,08,07,04,55,15.50
2018,08,07,04,56,15.50
2018,08,07,04,57,15.50
2018,08,07,04,58,15.50
2018,08,07,04,59,15.50
2018,08,07,05,00,15.50
2018,08,07,05,01,15.50
2018,08,07,05,02,15.50
2018,08,07,05,03,15.50
2018,08,07,05,04,15.50
2018,08,07,05,05,15.50
2018,08,07,05,06,15.40
2018,08,07,05,07,15.40
2018,08,07,05,08,15.40
2018,08,07,05,09,15.40
2018,08,07,05,10,15.40
2018,08,07,05,11,15.40
2018,08,07,05,12,15.40
2018,08,07,05,13,15.40
2018,08,07,05,14,15.40
2018,08,07,05,15,15.40
2018,08,07,05,16,15.40
2018,08,07,05,17,15.40
2018,08,07,05,18,15.40
2018,08,07,05,19,15.40
2018,08,07,05,20,15.40
2018,08,07,05,21,15.30
2018,08,07,05,22,15.30
2018,08,07,05,23,15.30
2018,08,07,05,24,15.30
2018,08,07,05,25,15.30
2018,08,07,05,26,15.30
2018,08,07,05,27,15.30
2018,08,07,05,28,15.30
2018,08,07,05,29,15.30
2018,08,07,05,30,15.30
2018,08,07,05,31,15.30
2018,08,07,05,32,15.30
2018,08,07,05,33,15.30
2018,08,07,05,34,15.30
2018,08,07,05,35,15.30
2018,08,07,05,36,15.30
2018,08,07,05,37,15.30
2018,08,07,05,38,15.30
2018,08,07,05,39,15.30
2018,08,07,05,40,15.30
2018,08,07,05,41,15.20
2018,08,07,05,42,15.20
2018,08,07,05,43,15.20
2018,08,07,05,44,15.20
2018,08,07,05,45,15.20
2018,08,07,05,46,15.20
2018,08,07,05,47,15.20
2018,08,07,05,48,15.20
2018,08,07,05,49,15.20
2018,08,07,05,50,15.20
2018,08,07,05,51,15.20
2018,08,07,05,52,15.10
2018,08,07,05,53,15.10
2018,08,07,05,54,15.10
2018,08,07,05,55,15.10
2018,08,07,05,56,15.10
2018,08,07,05,57,15.10
2018,08,07,05,58,15.10
2018,08,07,05,59,15.10
2018,08,07,06,00,15.00
2018,08,07,06,01,15.00
2018,08,07,06,02,15.00
2018,08,07,06,03,15.00
2018,08,07,06,04,15.00
2018,08,07,06,05,15.00
2018,08,07,06,06,15.00
2018,08,07,06,07,15.00
2018,08,07,06,08,15.00
2018,08,07,06,09,15.00
2018,08,07,06,10,15.00
2018,08,07,06,11,15.00
2018,08,07,06,12,15.00
2018,08,07,06,13,15.00
2018,08,07,06,14,15.00
2018,08,07,06,15,15.00
2018,08,07,06,16,15.00
2018,08,07,06,17,15.00
2018,08,07,06,18,15.00
2018,08,07,06,19,15.00
2018,08,07,06,20,15.00
2018,08,07,06,21,15.00
2018,08,07,06,22,15.00
2018,08,07,06,23,15.00
2018,08,07,06,24,15.00
2018,08,07,06,25,15.00
2018,08,07,06,26,15.00
2018,08,07,06,27,15.00
2018,08,07,06,28,15.00
2018,08,07,06,29,15.00
2018,08,07,06,30,15.00
2018,08,07,06,31,15.00
2018,08,07,06,32,15.00
2018,08,07,06,33,15.00
2018,08,07,06,34,15.00
2018,08,07,06,35,15.00
2018,08,07,06,36,15.00
2018,08,07,06,37,15.00
2018,08,07,06,38,15.00
2018,08,07,06,39,15.00
2018,08,07,06,40,15.00
2018,08,07,06,41,15.00
2018,08,07,06,42,15.00
2018,08,07,06,43,15.00
2018,08,07,06,44,15.00
2018,08,07,06,45,15.00
2018,08,07,06,46,15.00
2018,08,07,06,47,15.00
2018,08,07,06,48,15.00
2018,08,07,06,49,15.00
2018,08,07,06,50,15.00
2018,08,07,06,51,15.00
2018,08,07,06,52,15.00
2018,08,07,06,53,15.00
2018,08,07,06,54,15.00
2018,08,07,06,55,15.00
2018,08,07,06,56,15.00
2018,08,07,06,57,15.00
2018,08,07,06,58,15.00
2018,08,07,06,59,15.00
2018,08,07,07,00,15.00
2018,08,07,07,01,15.00
2018,08,07,07,02,15.00
2018,08,07,07,03,15.00
2018,08,07,07,04,15.00
2018,08,07,07,05,15.00
2018,08,07,07,06,15.00
2018,08,07,07,07,15.00
2018,08,07,07,08,15.00
2018,08,07,07,09,15.00
2018,08,07,07,10,15.00
2018,08,07,07,11,15.00
2018,08,07,07,12,15.00
2018,08,07,07,13,15.00
2018,08,07,07,14,15.00
2018,08,07,07,15,15.10
2018,08,07,07,16,15.10
2018,08,07,07,17,15.20
2018,08,07,07,18,15.20
2018,08,07,07,19,15.30
2018,08,07,07,20,15.30
2018,08,07,07,21,15.50
2018,08,07,07,22,15.50
2018,08,07,07,23,15.60
2018,08,07,07,24,15.70
2018,08,07,07,25,15.70
2018,08,07,07,26,15.80
2018,08,07,07,27,15.90
2018,08,07,07,28,16.00
2018,08,07,07,29,16.00
2018,08,07,07,30,16.10
2018,08,07,07,31,16.20
2018,08,07,07,32,16.30
2018,08,07,07,33,16.30
2018,08,07,07,34,16.40
2018,08,07,07,35,16.50
2018,08,07,07,36,16.60
2018,08,07,07,37,16.60
2018,08,07,07,38,16.70
2018,08,07,07,39,16.80
2018,08,07,07,40,16.80
2018,08,07,07,41,16.90
2018,08,07,09,44,21.60
2018,08,07,09,45,21.60
2018,08,07,09,46,21.60
2018,08,07,09,47,21.70
2018,08,07,09,48,21.70
2018,08,07,09,49,21.70
2018,08,07,09,50,21.80
2018,08,07,09,51,21.80
2018,08,07,09,52,21.80
2018,08,07,09,53,21.80
2018,08,07,09,54,21.80
2018,08,07,09,55,21.80
2018,08,07,09,56,21.80
2018,08,07,09,57,21.80
2018,08,07,09,58,21.80
2018,08,07,09,59,21.90
2018,08,07,10,00,21.90
2018,08,07,10,01,21.90
2018,08,07,10,02,21.90
2018,08,07,10,03,22.00
2018,08,07,10,04,22.00
2018,08,07,10,05,22.10
2018,08,07,10,06,22.10
2018,08,07,10,07,22.10
2018,08,07,10,08,22.00
2018,08,07,10,09,22.00
2018,08,07,10,10,22.10
2018,08,07,10,11,22.10
2018,08,07,10,12,22.10
2018,08,07,10,13,22.20
2018,08,07,10,14,22.30
2018,08,07,10,15,22.50
2018,08,07,10,16,22.60
2018,08,07,10,17,22.70
2018,08,07,10,18,22.90
2018,08,07,10,19,22.90
2018,08,07,10,20,23.00
2018,08,07,10,21,23.10
2018,08,07,10,22,23.20
2018,08,07,10,23,23.30
2018,08,07,10,24,23.40
2018,08,07,10,25,23.40
2018,08,07,10,26,23.50
2018,08,07,10,27,23.50
2018,08,07,10,28,23.50
2018,08,07,10,29,23.50
2018,08,07,10,30,23.50
2018,08,07,10,31,23.50
2018,08,07,10,32,23.50
2018,08,07,10,33,23.60
2018,08,07,10,34,23.60
2018,08,07,10,35,23.70
2018,08,07,10,36,23.70
2018,08,07,10,37,23.80
2018,08,07,10,38,23.80
2018,08,07,10,39,23.90
2018,08,07,10,40,23.90
2018,08,07,10,41,24.00
2018,08,07,10,42,24.10
2018,08,07,10,43,24.20
2018,08,07,10,44,24.20
2018,08,07,10,45,24.20
2018,08,07,10,46,24.20
2018,08,07,10,47,24.20
2018,08,07,10,48,24.20
2018,08,07,10,49,24.20
2018,08,07,10,50,24.30
2018,08,07,10,51,24.30
2018,08,07,10,52,24.30
2018,08,07,10,53,24.40
2018,08,07,10,54,24.40
2018,08,07,10,55,24.40
2018,08,07,10,56,24.40
2018,08,07,10,57,24.40
2018,08,07,10,58,24.50
2018,08,07,10,59,24.50
2018,08,07,11,00,24.60
2018,08,07,11,01,24.70
2018,08,07,11,02,24.80
2018,08,07,11,03,24.90
2018,08,07,11,04,24.90
2018,08,07,11,05,25.00
2018,08,07,11,06,25.00
2018,08,07,11,07,25.00
2018,08,07,11,08,25.00
2018,08,07,11,09,25.10
2018,08,07,11,10,25.10
2018,08,07,11,11,25.10
2018,08,07,11,12,25.10
2018,08,07,11,13,25.20
2018,08,07,11,14,25.30
2018,08,07,11,15,25.40
2018,08,07,11,16,25.40
2018,08,07,11,17,25.40
2018,08,07,11,18,25.40
2018,08,07,11,19,25.40
2018,08,07,11,20,25.50
2018,08,07,11,21,25.50
2018,08,07,11,22,25.60
2018,08,07,11,23,25.60
2018,08,07,11,24,25.60
2018,08,07,11,25,25.70
2018,08,07,11,26,25.70
2018,08,07,11,27,25.70
2018,08,07,11,28,25.80
2018,08,07,11,29,25.80
2018,08,07,11,30,25.90
2018,08,07,11,31,26.00
2018,08,07,11,32,26.10
2018,08,07,11,33,26.30
2018,08,07,11,34,26.30
2018,08,07,11,35,26.40
2018,08,07,11,36,26.50
2018,08,07,11,37,26.50
2018,08,07,11,38,26.60
2018,08,07,11,39,26.60
2018,08,07,11,40,26.60
2018,08,07,11,41,26.60
2018,08,07,11,42,26.70
2018,08,07,11,43,26.80
2018,08,07,11,44,26.90
2018,08,07,11,45,26.90
2018,08,07,11,46,27.00
2018,08,07,11,47,27.10
2018,08,07,11,48,27.20
2018,08,07,11,49,27.30
2018,08,07,11,50,27.30
2018,08,07,11,51,27.30
2018,08,07,11,52,27.40
2018,08,07,11,53,27.40
2018,08,07,11,54,27.40
2018,08,07,11,55,27.40
2018,08,07,11,56,27.40
2018,08,07,11,57,27.50
2018,08,07,11,58,27.50
2018,08,07,11,59,27.60
2018,08,07,12,00,27.60
2018,08,07,12,01,27.70
2018,08,07,12,02,27.80
2018,08,07,12,03,27.80
2018,08,07,12,04,27.80
2018,08,07,12,05,27.80
2018,08,07,12,06,27.80
2018,08,07,12,07,27.80
2018,08,07,12,08,27.80
2018,08,07,12,09,27.90
2018,08,07,12,10,27.90
2018,08,07,12,11,28.00
2018,08,07,12,12,28.10
2018,08,07,12,13,28.20
2018,08,07,12,14,28.30
2018,08,07,12,15,28.30
2018,08,07,12,16,28.40
2018,08,07,12,17,28.40
2018,08,07,12,18,28.40
2018,08,07,12,19,28.40
2018,08,07,12,20,28.40
2018,08,07,12,21,28.40
2018,08,07,12,22,28.40
2018,08,07,12,23,28.40
2018,08,07,12,24,28.50
2018,08,07,12,25,28.50
2018,08,07,12,26,28.60
2018,08,07,12,27,28.60
2018,08,07,12,28,28.60
2018,08,07,12,29,28.60
2018,08,07,12,30,28.50
2018,08,07,12,31,28.60
2018,08,07,12,32,28.60
2018,08,07,12,33,28.70
2018,08,07,12,34,28.80
2018,08,07,12,35,28.80
2018,08,07,12,36,28.80
2018,08,07,12,37,28.80
2018,08,07,12,38,28.80
2018,08,07,12,39,28.90
2018,08,07,12,40,29.00
2018,08,07,12,41,29.20
2018,08,07,12,42,29.20
2018,08,07,12,43,29.30
2018,08,07,12,44,29.30
2018,08,07,12,45,29.30
2018,08,07,12,46,29.20
2018,08,07,12,47,29.10
2018,08,07,12,48,29.10
2018,08,07,12,49,29.10
2018,08,07,12,50,29.00
2018,08,07,12,51,29.00
2018,08,07,12,52,29.00
2018,08,07,12,53,29.10
2018,08,07,12,54,29.10
2018,08,07,12,55,29.20
2018,08,07,12,56,29.30
2018,08,07,12,57,29.30
2018,08,07,12,58,29.40
2018,08,07,12,59,29.40
2018,08,07,13,00,29.50
2018,08,07,13,01,29.50
2018,08,07,13,02,29.50
2018,08,07,13,03,29.40
2018,08,07,13,04,29.40
2018,08,07,13,05,29.50
2018,08,07,13,06,29.50
2018,08,07,13,07,29.60
2018,08,07,13,08,29.60
2018,08,07,13,09,29.70
2018,08,07,13,10,29.80
2018,08,07,13,11,29.80
2018,08,07,13,12,29.80
2018,08,07,13,13,29.90
2018,08,07,13,14,29.90
2018,08,07,13,15,30.00
2018,08,07,13,16,30.10
2018,08,07,13,17,30.10
2018,08,07,13,18,30.10
2018,08,07,13,19,30.10
2018,08,07,13,20,30.20
2018,08,07,13,21,30.20
2018,08,07,13,22,30.30
2018,08,07,13,23,30.20
2018,08,07,13,24,30.20
2018,08,07,13,25,30.30
2018,08,07,13,26,30.30
2018,08,07,13,27,30.30
2018,08,07,13,28,30.30
2018,08,07,13,29,30.30
2018,08,07,13,30,30.20
2018,08,07,13,31,30.30
2018,08,07,13,32,30.30
2018,08,07,13,33,30.30
2018,08,07,13,34,30.30
2018,08,07,13,35,30.40
2018,08,07,13,36,30.40
2018,08,07,13,37,30.40
2018,08,07,13,38,30.40
2018,08,07,13,39,30.40
2018,08,07,13,40,30.40
2018,08,07,13,41,30.50
2018,08,07,13,42,30.50
2018,08,07,13,43,30.60
2018,08,07,13,44,30.60
2018,08,07,13,45,30.60
2018,08,07,13,46,30.60
2018,08,07,13,47,30.60
2018,08,07,13,48,30.60
2018,08,07,13,49,30.70
2018,08,07,13,50,30.70
2018,08,07,13,51,30.70
2018,08,07,13,52,30.60
2018,08,07,13,53,30.60
2018,08,07,13,54,30.60
2018,08,07,13,55,30.60
2018,08,07,13,56,30.70
2018,08,07,13,57,30.70
2018,08,07,13,58,30.80
2018,08,07,13,59,30.90
2018,08,07,14,00,30.90
2018,08,07,14,01,31.00
2018,08,07,14,02,31.00
2018,08,07,14,03,31.00
2018,08,07,14,04,31.10
2018,08,07,14,05,31.10
2018,08,07,14,06,31.20
2018,08,07,14,07,31.20
2018,08,07,14,08,31.30
2018,08,07,14,09,31.30
2018,08,07,14,10,31.30
2018,08,07,14,11,31.40
2018,08,07,14,12,31.40
2018,08,07,14,13,31.40
2018,08,07,14,14,31.50
2018,08,07,14,15,31.50
2018,08,07,14,16,31.60
2018,08,07,14,17,31.50
2018,08,07,14,18,31.50
2018,08,07,14,19,31.60
2018,08,07,14,20,31.60
2018,08,07,14,21,31.60
2018,08,07,14,22,31.70
2018,08,07,14,23,31.70
2018,08,07,14,24,31.80
2018,08,07,14,25,31.80
2018,08,07,14,26,31.80
2018,08,07,14,27,31.80
2018,08,07,14,28,31.80
2018,08,07,14,29,31.70
2018,08,07,14,30,31.70
2018,08,07,14,31,31.70
2018,08,07,14,32,31.80
2018,08,07,14,33,31.90
2018,08,07,14,34,32.00
2018,08,07,14,35,32.10
2018,08,07,14,36,32.20
2018,08,07,14,37,32.30
2018,08,07,14,38,32.30
2018,08,07,14,39,32.30
2018,08,07,14,40,32.30
2018,08,07,14,41,32.30
2018,08,07,14,42,32.30
2018,08,07,14,43,32.30
2018,08,07,14,44,32.20
2018,08,07,14,45,32.20
2018,08,07,14,46,32.30
2018,08,07,14,47,32.40
2018,08,07,14,48,32.40
2018,08,07,14,49,32.50
2018,08,07,14,50,32.60
2018,08,07,14,51,32.60
2018,08,07,14,52,32.60
2018,08,07,14,53,32.60
2018,08,07,14,54,32.50
2018,08,07,14,55,32.40
2018,08,07,14,56,32.40
2018,08,07,14,57,32.40
2018,08,07,14,58,32.40
2018,08,07,14,59,32.40
2018,08,07,15,00,32.40
2018,08,07,15,01,32.40
2018,08,07,15,02,32.50
2018,08,07,15,03,32.60
2018,08,07,15,04,32.60
2018,08,07,15,05,32.60
2018,08,07,15,06,32.60
2018,08,07,15,07,32.60
2018,08,07,15,08,32.70
2018,08,07,15,09,32.70
2018,08,07,15,10,32.80
2018,08,07,15,11,32.80
2018,08,07,15,12,32.70
2018,08,07,15,13,32.70
2018,08,07,15,14,32.80
2018,08,07,15,15,32.80
2018,08,07,15,16,32.90
2018,08,07,15,17,32.90
2018,08,07,15,18,32.90
2018,08,07,15,19,32.80
2018,08,07,15,20,32.70
2018,08,07,15,21,32.70
2018,08,07,15,22,32.60
2018,08,07,15,23,32.50
2018,08,07,15,24,32.50
2018,08,07,15,25,32.60
2018,08,07,15,26,32.70
2018,08,07,15,27,32.80
2018,08,07,15,28,32.80
2018,08,07,15,29,32.90
2018,08,07,15,30,32.90
2018,08,07,15,31,32.90
2018,08,07,15,32,32.90
2018,08,07,15,33,32.80
2018,08,07,15,34,32.70
2018,08,07,15,35,32.80
2018,08,07,15,36,32.80
2018,08,07,15,37,32.80
2018,08,07,15,38,32.80
2018,08,07,15,39,32.80
2018,08,07,15,40,32.90
2018,08,07,15,41,33.00
2018,08,07,15,42,33.10
2018,08,07,15,43,33.20
2018,08,07,15,44,33.30
2018,08,07,15,45,33.30
2018,08,07,15,46,33.30
2018,08,07,15,47,33.30
2018,08,07,15,48,33.30
2018,08,07,15,49,33.30
2018,08,07,15,50,33.30
2018,08,07,15,51,33.30
2018,08,07,15,52,33.30
2018,08,07,15,53,33.20
2018,08,07,15,54,33.20
2018,08,07,15,55,33.10
2018,08,07,15,56,33.00
2018,08,07,15,57,32.90
2018,08,07,15,58,32.80
2018,08,07,15,59,32.80
2018,08,07,16,00,32.80
2018,08,07,16,01,32.80
2018,08,07,16,02,33.00
2018,08,07,16,03,33.10
2018,08,07,16,04,33.20
2018,08,07,16,05,33.20
2018,08,07,16,06,33.20
2018,08,07,16,07,33.30
2018,08,07,16,08,33.40
2018,08,07,16,09,33.40
2018,08,07,16,10,33.40
2018,08,07,16,11,33.50
2018,08,07,16,12,33.50
2018,08,07,16,13,33.60
2018,08,07,16,14,33.70
2018,08,07,16,15,33.80
2018,08,07,16,16,33.70
2018,08,07,16,17,33.50
2018,08,07,16,18,33.40
2018,08,07,16,19,33.30
2018,08,07,16,20,33.20
2018,08,07,16,21,33.00
2018,08,07,16,22,32.90
2018,08,07,16,23,32.80
2018,08,07,16,24,32.80
2018,08,07,16,25,32.70
2018,08,07,16,26,32.70
2018,08,07,16,27,32.70
2018,08,07,16,28,32.60
2018,08,07,16,29,32.70
2018,08,07,16,30,32.70
2018,08,07,16,31,32.80
2018,08,07,16,32,32.90
2018,08,07,16,33,33.10
2018,08,07,16,34,33.20
2018,08,07,16,35,33.30
2018,08,07,16,36,33.30
2018,08,07,16,37,33.30
2018,08,07,16,38,33.40
2018,08,07,16,39,33.40
2018,08,07,16,40,33.30
2018,08,07,16,41,33.20
2018,08,07,16,42,33.10
2018,08,07,16,43,33.00
2018,08,07,16,44,32.90
2018,08,07,16,45,32.80
2018,08,07,16,46,32.80
2018,08,07,16,47,32.80
2018,08,07,16,48,32.80
2018,08,07,16,49,32.80
2018,08,07,16,50,32.90
2018,08,07,16,51,32.80
2018,08,07,16,52,32.80
2018,08,07,16,53,32.80
2018,08,07,16,54,32.80
2018,08,07,16,55,32.80
2018,08,07,16,56,32.80
2018,08,07,16,57,32.80
2018,08,07,16,58,32.80
2018,08,07,16,59,32.80
2018,08,07,17,00,32.70
2018,08,07,17,01,32.60
2018,08,07,17,02,32.60
2018,08,07,17,03,32.60
2018,08,07,17,04,32.70
2018,08,07,17,05,32.70
2018,08,07,17,06,32.70
2018,08,07,17,07,32.70
2018,08,07,17,08,32.70
2018,08,07,17,09,32.70
2018,08,07,17,10,32.60
2018,08,07,17,11,32.60
2018,08,07,17,12,32.60
2018,08,07,17,13,32.60
2018,08,07,17,14,32.60
2018,08,07,17,15,32.60
2018,08,07,17,16,32.70
2018,08,07,17,17,32.70
2018,08,07,17,18,32.80
2018,08,07,17,19,32.80
2018,08,07,17,20,32.80
2018,08,07,17,21,32.70
2018,08,07,17,22,32.60
2018,08,07,17,23,32.50
2018,08,07,17,24,32.50
2018,08,07,17,25,32.40
2018,08,07,17,26,32.40
2018,08,07,17,27,32.50
2018,08,07,17,28,32.60
2018,08,07,17,29,32.60
2018,08,07,17,30,32.60
2018,08,07,17,31,32.50
2018,08,07,17,32,32.50
2018,08,07,17,33,32.60
2018,08,07,17,34,32.60
2018,08,07,17,35,32.60
2018,08,07,17,36,32.60
2018,08,07,17,37,32.70
2018,08,07,17,38,32.70
2018,08,07,17,39,32.70
2018,08,07,17,40,32.60
2018,08,07,17,41,32.60
2018,08,07,17,42,32.60
2018,08,07,17,43,32.60
2018,08,07,17,44,32.60
2018,08,07,17,45,32.60
2018,08,07,17,46,32.70
2018,08,07,17,47,32.70
2018,08,07,17,48,32.70
2018,08,07,17,49,32.70
2018,08,07,17,50,32.70
2018,08,07,17,51,32.70
2018,08,07,17,52,32.70
2018,08,07,17,53,32.70
2018,08,07,17,54,32.60
2018,08,07,17,55,32.50
2018,08,07,17,56,32.40
2018,08,07,17,57,32.30
2018,08,07,17,58,32.30
2018,08,07,17,59,32.20
2018,08,07,18,00,32.20
2018,08,07,18,01,32.10
2018,08,07,18,02,32.10
2018,08,07,18,03,32.10
2018,08,07,18,04,32.00
2018,08,07,18,05,32.10
2018,08,07,18,06,32.10
2018,08,07,18,07,32.10
2018,08,07,18,08,32.00
2018,08,07,18,09,32.00
2018,08,07,18,10,31.90
2018,08,07,18,11,31.90
2018,08,07,18,12,31.90
2018,08,07,18,13,31.90
2018,08,07,18,14,32.00
2018,08,07,18,15,32.10
2018,08,07,18,16,32.10
2018,08,07,18,17,32.10
2018,08,07,18,18,32.00
2018,08,07,18,19,31.90
2018,08,07,18,20,31.90
2018,08,07,18,21,32.00
2018,08,07,18,22,32.00
2018,08,07,18,23,32.00
2018,08,07,18,24,31.90
2018,08,07,18,25,31.80
2018,08,07,18,26,31.80
2018,08,07,18,27,31.70
2018,08,07,18,28,31.60
2018,08,07,18,29,31.50
2018,08,07,18,30,31.50
2018,08,07,18,31,31.40
2018,08,07,18,32,31.30
2018,08,07,18,33,31.20
2018,08,07,18,34,31.10
2018,08,07,18,35,31.00
2018,08,07,18,36,30.90
2018,08,07,18,37,30.90
2018,08,07,18,38,30.90
2018,08,07,18,39,30.90
2018,08,07,18,40,30.80
2018,08,07,18,41,30.80
2018,08,07,18,42,30.70
2018,08,07,18,43,30.70
2018,08,07,18,44,30.60
2018,08,07,18,45,30.60
2018,08,07,18,46,30.60
2018,08,07,18,47,30.60
2018,08,07,18,48,30.60
2018,08,07,18,49,30.70
2018,08,07,18,50,30.70
2018,08,07,18,51,30.70
2018,08,07,18,52,30.70
2018,08,07,18,53,30.60
2018,08,07,18,54,30.60
2018,08,07,18,55,30.60
2018,08,07,18,56,30.60
2018,08,07,18,57,30.60
2018,08,07,18,58,30.60
2018,08,07,18,59,30.60
2018,08,07,19,00,30.60
2018,08,07,19,01,30.60
2018,08,07,19,02,30.60
2018,08,07,19,03,30.50
2018,08,07,19,04,30.50
2018,08,07,19,05,30.50
2018,08,07,19,06,30.40
2018,08,07,19,07,30.40
2018,08,07,19,08,30.40
2018,08,07,19,09,30.40
2018,08,07,19,10,30.40
2018,08,07,19,11,30.50
2018,08,07,19,12,30.50
2018,08,07,19,13,30.60
2018,08,07,19,14,30.60
2018,08,07,19,15,30.60
2018,08,07,19,16,30.60
2018,08,07,19,17,30.60
2018,08,07,19,18,30.60
2018,08,07,19,19,30.60
2018,08,07,19,20,30.50
2018,08,07,19,21,30.50